International Virtual Aviation Organisation

Russian Federation and Kazakhstan MCD

 

Карточка аэропорта UUWW

Внимание!
Информация на этой странице в стадии наполнения.
Если вы не увидели какой-то информации, или заметили неточность - пожалуйста сообщите нам!
Спасибо!
Команда RU-STAFF
Название аэропортаВнуково
Название аэропорта (англ.)Vnukovo
Превышение686 ft. (209.1 m.)
Координаты55°35.952', 37°16.386'
Высота перехода1200 m
Эшелон переходаBy ATC
Коды ответчика2101-2117
Зона ОрВДМосква РПИ (UUWV)
Данные METARUUWW 091400Z 36005MPS CAVOK 24/11 Q1015 R01/000070 NOSIG
Проноз погоды (TAF)UUWW 091352Z 0915/1015 35003G08MPS 9000 BKN020 TX26/1012Z TN12/1002Z BECMG 0920/0922 FEW004 BKN016 PROB40 TEMPO 0922/1005 0300 FG BKN002 BECMG 1005/1007 BKN020 BECMG 1007/1009 28003G10MPS PROB40 TEMPO 1012/1015 -TSRA BKN030CB
NOTAMshow/hide NOTAM
AWOS   TABLE

Информация о ВПП

ВПП Длина ВПП (м.) Покрытие Курс ВПП Частота ILS
013060Асфальтобетон13111.7
193060Асфальтобетон193111.5
063500Цементобетон58108.9
243500Цементобетон238111.1

Диспетчерские позиции

Позывной Наименование органа УВД Частота
UUWW_APPВнуково-Подход122.300
UUWW_TWRВнуково-Вышка118.300
UUWW_R_APPВнуково-Круг126.000
UUWW_GNDВнуково-Руление120.450
UUWW_GNDВнуково-Руление121.700
UUWW_DELВнуково-Деливери131.800
UUWW_DELВнуково-Деливери129.700



Спутниковое изображение